| time (UTC) | temp F | wind direction | speed knots | gust knots | rain 1hr in | rain 24hr in | rain mn in | humidity % | barometer mb |
| 20260505081048 | 50 | 220 | 0.9 | 3.5 | 0.00 | 0.00 | 0.00 | 88 | 1010.7 |
| 20260505064728 | 50 | 233 | 1.7 | 3.5 | 0.00 | 0.00 | 0.00 | 85 | 1010.9 |
| 20260505063048 | 50 | 241 | 1.7 | 3.5 | 0.00 | 0.00 | 0.00 | 85 | 1011.0 |
| 20260505055728 | 51 | 243 | 1.7 | 7.0 | 0.00 | 0.00 | 0.00 | 83 | 1011.1 |
| 20260505050728 | 51 | 233 | 1.7 | 5.2 | 0.00 | 0.00 | 0.00 | 81 | 1011.0 |
| 20260505041728 | 52 | 243 | 1.7 | 5.2 | 0.00 | 0.00 | 0.00 | 79 | 1011.2 |
| 20260505040048 | 52 | 238 | 1.7 | 5.2 | 0.00 | 0.00 | 0.00 | 78 | 1011.1 |
| 20260505034408 | 52 | 236 | 1.7 | 4.3 | 0.00 | 0.00 | 0.00 | 77 | 1011.1 |
| 20260505022048 | 54 | 232 | 2.6 | 6.1 | 0.00 | 0.00 | 0.00 | 73 | 1011.2 |
| 20260505020407 | 54 | 228 | 2.6 | 6.1 | 0.00 | 0.00 | 0.00 | 71 | 1011.2 |
| 20260505014727 | 54 | 229 | 2.6 | 6.1 | 0.00 | 0.00 | 0.00 | 70 | 1011.3 |
| 20260505013048 | 55 | 222 | 2.6 | 5.2 | 0.00 | 0.00 | 0.00 | 68 | 1011.1 |
| 20260505005727 | 56 | 237 | 3.5 | 9.6 | 0.00 | 0.00 | 0.00 | 65 | 1010.5 |
| 20260505004048 | 56 | 230 | 3.5 | 7.8 | 0.00 | 0.00 | 0.00 | 63 | 1010.1 |
| 20260505002407 | 57 | 235 | 3.5 | 10.4 | 0.00 | 0.00 | 0.00 | 60 | 1009.8 |
| 20260505000727 | 58 | 217 | 3.5 | 8.7 | 0.00 | 0.00 | 0.00 | 57 | 1009.4 |
| 20260504235048 | 58 | 219 | 2.6 | 7.0 | 0.00 | 0.00 | 0.00 | 55 | 1009.2 |
| 20260504231727 | 61 | 230 | 3.5 | 10.4 | 0.00 | 0.00 | 0.00 | 49 | 1008.7 |
| 20260504230047 | 62 | 218 | 4.3 | 9.6 | 0.00 | 0.00 | 0.00 | 46 | 1008.4 |
| 20260504224407 | 64 | 209 | 3.5 | 10.4 | 0.00 | 0.00 | 0.00 | 45 | 1008.3 |
| 20260504222728 | 64 | 239 | 5.2 | 13.0 | 0.00 | 0.00 | 0.00 | 44 | 1008.0 |
| 20260504221047 | 65 | 234 | 5.2 | 13.0 | 0.00 | 0.00 | 0.00 | 43 | 1007.9 |
| 20260504215407 | 66 | 230 | 4.3 | 13.0 | 0.00 | 0.00 | 0.00 | 43 | 1007.9 |
| 20260504213727 | 65 | 204 | 5.2 | 10.4 | 0.00 | 0.00 | 0.00 | 43 | 1007.8 |
| 20260504210407 | 67 | 217 | 4.3 | 10.4 | 0.00 | 0.00 | 0.00 | 40 | 1007.7 |
| 20260504204727 | 67 | 222 | 4.3 | 9.6 | 0.00 | 0.00 | 0.00 | 38 | 1007.6 |
| 20260504203048 | 67 | 215 | 4.3 | 10.4 | 0.00 | 0.00 | 0.00 | 37 | 1007.6 |
| 20260504201407 | 68 | 200 | 4.3 | 10.4 | 0.00 | 0.00 | 0.00 | 37 | 1007.5 |
| 20260504195727 | 69 | 228 | 5.2 | 12.2 | 0.00 | 0.00 | 0.00 | 34 | 1007.6 |
| 20260504194047 | 70 | 239 | 6.1 | 13.9 | 0.00 | 0.00 | 0.00 | 31 | 1007.5 |
| 20260504192407 | 70 | 241 | 6.1 | 13.9 | 0.00 | 0.00 | 0.00 | 29 | 1007.4 |
| 20260504190727 | 70 | 251 | 6.1 | 12.2 | 0.00 | 0.00 | 0.00 | 30 | 1007.5 |
| 20260504185048 | 70 | 240 | 6.1 | 12.2 | 0.00 | 0.00 | 0.00 | 29 | 1007.6 |
| 20260504183407 | 70 | 249 | 5.2 | 14.8 | 0.00 | 0.00 | 0.00 | 29 | 1007.8 |
| 20260504180047 | 70 | 256 | 5.2 | 13.9 | 0.00 | 0.00 | 0.00 | 29 | 1007.9 |
| 20260504172733 | 69 | 248 | 7.0 | 13.9 | 0.00 | 0.00 | 0.00 | 29 | 1007.8 |
| 20260504171047 | 69 | 260 | 7.0 | 16.5 | 0.00 | 0.00 | 0.00 | 31 | 1007.9 |
| 20260504140726 | 64 | 258 | 5.2 | 13.0 | 0.00 | 0.00 | 0.00 | 37 | 1010.2 |
| 20260504110406 | 46 | 254 | 1.7 | 6.1 | 0.00 | 0.00 | 0.00 | 60 | 1011.1 |